owner,sensor,date,latitude,longitude,relative_humidity,qcFlag 
DISL,ioos:station:DISL:KATA:1,2015-05-01T00:00:00Z,30.2583,-88.2131,61.3,1111122 
DISL,ioos:station:DISL:KATA:1,2015-05-01T00:30:00Z,30.2583,-88.2131,65.74,1111122 
DISL,ioos:station:DISL:KATA:1,2015-05-01T01:00:00Z,30.2583,-88.2131,66.42,1111122 
DISL,ioos:station:DISL:KATA:1,2015-05-01T01:30:00Z,30.2583,-88.2131,73.98,1111122 
DISL,ioos:station:DISL:KATA:1,2015-05-01T02:00:00Z,30.2583,-88.2131,75.0,1111122 
DISL,ioos:station:DISL:KATA:1,2015-05-01T02:30:00Z,30.2583,-88.2131,76.12,1111122 
DISL,ioos:station:DISL:KATA:1,2015-05-01T03:00:00Z,30.2583,-88.2131,72.83,1111122 
DISL,ioos:station:DISL:KATA:1,2015-05-01T03:30:00Z,30.2583,-88.2131,70.9,1111122 
DISL,ioos:station:DISL:KATA:1,2015-05-01T04:00:00Z,30.2583,-88.2131,66.93,1111122 
DISL,ioos:station:DISL:KATA:1,2015-05-01T04:30:00Z,30.2583,-88.2131,69.92,1111122 
DISL,ioos:station:DISL:KATA:1,2015-05-01T05:00:00Z,30.2583,-88.2131,69.1,1111122 
DISL,ioos:station:DISL:KATA:1,2015-05-01T05:30:00Z,30.2583,-88.2131,73.31,1111122 
DISL,ioos:station:DISL:KATA:1,2015-05-01T06:00:00Z,30.2583,-88.2131,66.21,1111122 
DISL,ioos:station:DISL:KATA:1,2015-05-01T06:30:00Z,30.2583,-88.2131,67.51,1111122 
DISL,ioos:station:DISL:KATA:1,2015-05-01T07:00:00Z,30.2583,-88.2131,68.49,1111122 
DISL,ioos:station:DISL:KATA:1,2015-05-01T07:30:00Z,30.2583,-88.2131,64.6,1111122 
DISL,ioos:station:DISL:KATA:1,2015-05-01T08:00:00Z,30.2583,-88.2131,60.84,1111122 
DISL,ioos:station:DISL:KATA:1,2015-05-01T08:30:00Z,30.2583,-88.2131,60.88,1111122 
DISL,ioos:station:DISL:KATA:1,2015-05-01T09:00:00Z,30.2583,-88.2131,68.27,1111122 
DISL,ioos:station:DISL:KATA:1,2015-05-01T09:30:00Z,30.2583,-88.2131,62.1,1111122 
DISL,ioos:station:DISL:KATA:1,2015-05-01T10:00:00Z,30.2583,-88.2131,64.64,1111122 
DISL,ioos:station:DISL:KATA:1,2015-05-01T10:30:00Z,30.2583,-88.2131,70.92,1111122 
DISL,ioos:station:DISL:KATA:1,2015-05-01T11:00:00Z,30.2583,-88.2131,70.95,1111122 
DISL,ioos:station:DISL:KATA:1,2015-05-01T11:30:00Z,30.2583,-88.2131,65.73,1111122 
DISL,ioos:station:DISL:KATA:1,2015-05-01T12:00:00Z,30.2583,-88.2131,68.44,1111122 
DISL,ioos:station:DISL:KATA:1,2015-05-01T12:30:00Z,30.2583,-88.2131,62.64,1111122 
DISL,ioos:station:DISL:KATA:1,2015-05-01T13:00:00Z,30.2583,-88.2131,67.29,1111122 
DISL,ioos:station:DISL:KATA:1,2015-05-01T13:30:00Z,30.2583,-88.2131,65.05,1111122 
DISL,ioos:station:DISL:KATA:1,2015-05-01T14:00:00Z,30.2583,-88.2131,67.63,1111122 
DISL,ioos:station:DISL:KATA:1,2015-05-01T14:30:00Z,30.2583,-88.2131,57.21,1111122 
DISL,ioos:station:DISL:KATA:1,2015-05-01T15:00:00Z,30.2583,-88.2131,59.89,1111122 
DISL,ioos:station:DISL:KATA:1,2015-05-01T15:30:00Z,30.2583,-88.2131,55.89,1111122 
DISL,ioos:station:DISL:KATA:1,2015-05-01T16:00:00Z,30.2583,-88.2131,51.97,1111122 
DISL,ioos:station:DISL:KATA:1,2015-05-01T16:30:00Z,30.2583,-88.2131,50.34,1111122 
DISL,ioos:station:DISL:KATA:1,2015-05-01T17:00:00Z,30.2583,-88.2131,52.27,1111122 
DISL,ioos:station:DISL:KATA:1,2015-05-01T17:30:00Z,30.2583,-88.2131,45.12,1111122 
DISL,ioos:station:DISL:KATA:1,2015-05-01T18:00:00Z,30.2583,-88.2131,47.56,1111122 
DISL,ioos:station:DISL:KATA:1,2015-05-01T18:30:00Z,30.2583,-88.2131,43.28,1111122 
DISL,ioos:station:DISL:KATA:1,2015-05-01T19:00:00Z,30.2583,-88.2131,47.29,1111122 
DISL,ioos:station:DISL:KATA:1,2015-05-01T19:30:00Z,30.2583,-88.2131,50.27,1111122 
DISL,ioos:station:DISL:KATA:1,2015-05-01T20:00:00Z,30.2583,-88.2131,45.96,1111122 
DISL,ioos:station:DISL:KATA:1,2015-05-01T20:30:00Z,30.2583,-88.2131,47.66,1111122 
DISL,ioos:station:DISL:KATA:1,2015-05-01T21:00:00Z,30.2583,-88.2131,54.37,1111122 
DISL,ioos:station:DISL:KATA:1,2015-05-01T21:30:00Z,30.2583,-88.2131,59.84,1111122 
DISL,ioos:station:DISL:KATA:1,2015-05-01T22:00:00Z,30.2583,-88.2131,56.17,1111122 
DISL,ioos:station:DISL:KATA:1,2015-05-01T22:30:00Z,30.2583,-88.2131,56.55,1111122 
DISL,ioos:station:DISL:KATA:1,2015-05-01T23:00:00Z,30.2583,-88.2131,57.6,1111122 
DISL,ioos:station:DISL:KATA:1,2015-05-01T23:30:00Z,30.2583,-88.2131,64.01,1111122 
DISL,ioos:station:DISL:KATA:1,2015-05-02T00:00:00Z,30.2583,-88.2131,61.43,1111122 
DISL,ioos:station:DISL:KATA:1,2015-05-02T00:30:00Z,30.2583,-88.2131,63.74,1111122 
DISL,ioos:station:DISL:KATA:1,2015-05-02T01:00:00Z,30.2583,-88.2131,70.69,1111122 
DISL,ioos:station:DISL:KATA:1,2015-05-02T01:30:00Z,30.2583,-88.2131,52.61,1111122 
DISL,ioos:station:DISL:KATA:1,2015-05-02T02:00:00Z,30.2583,-88.2131,53.09,1111122 
DISL,ioos:station:DISL:KATA:1,2015-05-02T02:30:00Z,30.2583,-88.2131,52.27,1111122 
DISL,ioos:station:DISL:KATA:1,2015-05-02T03:00:00Z,30.2583,-88.2131,47.52,1111122 
DISL,ioos:station:DISL:KATA:1,2015-05-02T03:30:00Z,30.2583,-88.2131,51.7,1111122 
DISL,ioos:station:DISL:KATA:1,2015-05-02T04:00:00Z,30.2583,-88.2131,55.33,1111122 
DISL,ioos:station:DISL:KATA:1,2015-05-02T04:30:00Z,30.2583,-88.2131,49.91,1111122 
DISL,ioos:station:DISL:KATA:1,2015-05-02T05:00:00Z,30.2583,-88.2131,56.53,1111122 
DISL,ioos:station:DISL:KATA:1,2015-05-02T05:30:00Z,30.2583,-88.2131,55.55,1111122 
DISL,ioos:station:DISL:KATA:1,2015-05-02T06:00:00Z,30.2583,-88.2131,58.09,1111122 
DISL,ioos:station:DISL:KATA:1,2015-05-02T06:30:00Z,30.2583,-88.2131,51.2,1111122 
DISL,ioos:station:DISL:KATA:1,2015-05-02T07:00:00Z,30.2583,-88.2131,52.02,1111122 
DISL,ioos:station:DISL:KATA:1,2015-05-02T07:30:00Z,30.2583,-88.2131,52.56,1111122 
DISL,ioos:station:DISL:KATA:1,2015-05-02T08:00:00Z,30.2583,-88.2131,56.09,1111122 
DISL,ioos:station:DISL:KATA:1,2015-05-02T08:30:00Z,30.2583,-88.2131,53.89,1111122 
DISL,ioos:station:DISL:KATA:1,2015-05-02T09:00:00Z,30.2583,-88.2131,58.03,1111122 
DISL,ioos:station:DISL:KATA:1,2015-05-02T09:30:00Z,30.2583,-88.2131,62.06,1111122 
DISL,ioos:station:DISL:KATA:1,2015-05-02T10:00:00Z,30.2583,-88.2131,57.93,1111122 
DISL,ioos:station:DISL:KATA:1,2015-05-02T10:30:00Z,30.2583,-88.2131,54.3,1111122 
DISL,ioos:station:DISL:KATA:1,2015-05-02T11:00:00Z,30.2583,-88.2131,57.04,1111122 
DISL,ioos:station:DISL:KATA:1,2015-05-02T11:30:00Z,30.2583,-88.2131,58.13,1111122 
DISL,ioos:station:DISL:KATA:1,2015-05-02T12:00:00Z,30.2583,-88.2131,60.03,1111122 
DISL,ioos:station:DISL:KATA:1,2015-05-02T12:30:00Z,30.2583,-88.2131,60.57,1111122 
DISL,ioos:station:DISL:KATA:1,2015-05-02T13:00:00Z,30.2583,-88.2131,56.67,1111122 
DISL,ioos:station:DISL:KATA:1,2015-05-02T13:30:00Z,30.2583,-88.2131,57.28,1111122 
DISL,ioos:station:DISL:KATA:1,2015-05-02T14:00:00Z,30.2583,-88.2131,56.57,1111122 
DISL,ioos:station:DISL:KATA:1,2015-05-02T14:30:00Z,30.2583,-88.2131,56.94,1111122 
DISL,ioos:station:DISL:KATA:1,2015-05-02T15:00:00Z,30.2583,-88.2131,55.51,1111122 
DISL,ioos:station:DISL:KATA:1,2015-05-02T15:30:00Z,30.2583,-88.2131,58.01,1111122 
DISL,ioos:station:DISL:KATA:1,2015-05-02T16:00:00Z,30.2583,-88.2131,56.68,1111122 
DISL,ioos:station:DISL:KATA:1,2015-05-02T16:30:00Z,30.2583,-88.2131,48.58,1111122 
DISL,ioos:station:DISL:KATA:1,2015-05-02T17:00:00Z,30.2583,-88.2131,51.53,1111122 
DISL,ioos:station:DISL:KATA:1,2015-05-02T17:30:00Z,30.2583,-88.2131,48.1,1111122 
DISL,ioos:station:DISL:KATA:1,2015-05-02T18:00:00Z,30.2583,-88.2131,38.03,1111122 
DISL,ioos:station:DISL:KATA:1,2015-05-02T18:30:00Z,30.2583,-88.2131,39.72,1111122 
DISL,ioos:station:DISL:KATA:1,2015-05-02T19:00:00Z,30.2583,-88.2131,36.94,1111122 
DISL,ioos:station:DISL:KATA:1,2015-05-02T19:30:00Z,30.2583,-88.2131,38.03,1111122 
DISL,ioos:station:DISL:KATA:1,2015-05-02T20:00:00Z,30.2583,-88.2131,42.67,1111122 
DISL,ioos:station:DISL:KATA:1,2015-05-02T20:30:00Z,30.2583,-88.2131,44.13,1111122 
DISL,ioos:station:DISL:KATA:1,2015-05-02T21:00:00Z,30.2583,-88.2131,41.18,1111122 
DISL,ioos:station:DISL:KATA:1,2015-05-02T21:30:00Z,30.2583,-88.2131,42.7,1111122 
DISL,ioos:station:DISL:KATA:1,2015-05-02T22:00:00Z,30.2583,-88.2131,46.23,1111122 
DISL,ioos:station:DISL:KATA:1,2015-05-02T22:30:00Z,30.2583,-88.2131,49.22,1111122 
DISL,ioos:station:DISL:KATA:1,2015-05-02T23:00:00Z,30.2583,-88.2131,45.79,1111122 
DISL,ioos:station:DISL:KATA:1,2015-05-02T23:30:00Z,30.2583,-88.2131,46.1,1111122 
DISL,ioos:station:DISL:KATA:1,2015-05-03T00:00:00Z,30.2583,-88.2131,54.58,1111122 
DISL,ioos:station:DISL:KATA:1,2015-05-03T00:30:00Z,30.2583,-88.2131,50.88,1111122 
DISL,ioos:station:DISL:KATA:1,2015-05-03T01:00:00Z,30.2583,-88.2131,52.51,1111122 
DISL,ioos:station:DISL:KATA:1,2015-05-03T01:30:00Z,30.2583,-88.2131,48.27,1111122 
DISL,ioos:station:DISL:KATA:1,2015-05-03T02:00:00Z,30.2583,-88.2131,52.86,1111122 
DISL,ioos:station:DISL:KATA:1,2015-05-03T02:30:00Z,30.2583,-88.2131,54.5,1111122 
DISL,ioos:station:DISL:KATA:1,2015-05-03T03:00:00Z,30.2583,-88.2131,59.08,1111122 
DISL,ioos:station:DISL:KATA:1,2015-05-03T03:30:00Z,30.2583,-88.2131,48.05,1111122 
DISL,ioos:station:DISL:KATA:1,2015-05-03T04:00:00Z,30.2583,-88.2131,57.01,1111122 
DISL,ioos:station:DISL:KATA:1,2015-05-03T04:30:00Z,30.2583,-88.2131,51.61,1111122 
DISL,ioos:station:DISL:KATA:1,2015-05-03T05:00:00Z,30.2583,-88.2131,52.7,1111122 
DISL,ioos:station:DISL:KATA:1,2015-05-03T05:30:00Z,30.2583,-88.2131,52.39,1111122 
DISL,ioos:station:DISL:KATA:1,2015-05-03T06:00:00Z,30.2583,-88.2131,48.97,1111122 
DISL,ioos:station:DISL:KATA:1,2015-05-03T06:30:00Z,30.2583,-88.2131,53.61,1111122 
DISL,ioos:station:DISL:KATA:1,2015-05-03T07:00:00Z,30.2583,-88.2131,55.07,1111122 
DISL,ioos:station:DISL:KATA:1,2015-05-03T07:30:00Z,30.2583,-88.2131,50.02,1111122 
DISL,ioos:station:DISL:KATA:1,2015-05-03T08:00:00Z,30.2583,-88.2131,53.17,1111122 
DISL,ioos:station:DISL:KATA:1,2015-05-03T08:30:00Z,30.2583,-88.2131,51.65,1111122 
DISL,ioos:station:DISL:KATA:1,2015-05-03T09:00:00Z,30.2583,-88.2131,55.14,1111122 
DISL,ioos:station:DISL:KATA:1,2015-05-03T09:30:00Z,30.2583,-88.2131,57.28,1111122 
DISL,ioos:station:DISL:KATA:1,2015-05-03T10:00:00Z,30.2583,-88.2131,58.64,1111122 
DISL,ioos:station:DISL:KATA:1,2015-05-03T10:30:00Z,30.2583,-88.2131,58.64,1111122 
DISL,ioos:station:DISL:KATA:1,2015-05-03T11:00:00Z,30.2583,-88.2131,68.24,1111122 
DISL,ioos:station:DISL:KATA:1,2015-05-03T11:30:00Z,30.2583,-88.2131,63.83,1111122 
DISL,ioos:station:DISL:KATA:1,2015-05-03T12:00:00Z,30.2583,-88.2131,59.21,1111122 
DISL,ioos:station:DISL:KATA:1,2015-05-03T12:30:00Z,30.2583,-88.2131,76.79,1111122 
DISL,ioos:station:DISL:KATA:1,2015-05-03T13:00:00Z,30.2583,-88.2131,82.3,1111122 
DISL,ioos:station:DISL:KATA:1,2015-05-03T13:30:00Z,30.2583,-88.2131,78.53,1111122 
DISL,ioos:station:DISL:KATA:1,2015-05-03T14:00:00Z,30.2583,-88.2131,68.52,1111122 
DISL,ioos:station:DISL:KATA:1,2015-05-03T14:30:00Z,30.2583,-88.2131,71.88,1111122 
DISL,ioos:station:DISL:KATA:1,2015-05-03T15:00:00Z,30.2583,-88.2131,63.74,1111122 
DISL,ioos:station:DISL:KATA:1,2015-05-03T15:30:00Z,30.2583,-88.2131,59.91,1111122 
DISL,ioos:station:DISL:KATA:1,2015-05-03T16:00:00Z,30.2583,-88.2131,64.59,1111122 
DISL,ioos:station:DISL:KATA:1,2015-05-03T16:30:00Z,30.2583,-88.2131,65.47,1111122 
DISL,ioos:station:DISL:KATA:1,2015-05-03T17:00:00Z,30.2583,-88.2131,67.57,1111122 
DISL,ioos:station:DISL:KATA:1,2015-05-03T17:30:00Z,30.2583,-88.2131,68.01,1111122 
DISL,ioos:station:DISL:KATA:1,2015-05-03T18:00:00Z,30.2583,-88.2131,60.89,1111122 
DISL,ioos:station:DISL:KATA:1,2015-05-03T18:30:00Z,30.2583,-88.2131,56.0,1111122 
DISL,ioos:station:DISL:KATA:1,2015-05-03T19:00:00Z,30.2583,-88.2131,59.6,1111122 
DISL,ioos:station:DISL:KATA:1,2015-05-03T19:30:00Z,30.2583,-88.2131,57.39,1111122 
DISL,ioos:station:DISL:KATA:1,2015-05-03T20:00:00Z,30.2583,-88.2131,63.67,1111122 
DISL,ioos:station:DISL:KATA:1,2015-05-03T20:30:00Z,30.2583,-88.2131,69.44,1111122 
DISL,ioos:station:DISL:KATA:1,2015-05-03T21:00:00Z,30.2583,-88.2131,69.33,1111122 
DISL,ioos:station:DISL:KATA:1,2015-05-03T21:30:00Z,30.2583,-88.2131,69.67,1111122 
DISL,ioos:station:DISL:KATA:1,2015-05-03T22:00:00Z,30.2583,-88.2131,67.6,1111122 
DISL,ioos:station:DISL:KATA:1,2015-05-03T22:30:00Z,30.2583,-88.2131,66.51,1111122 
DISL,ioos:station:DISL:KATA:1,2015-05-03T23:00:00Z,30.2583,-88.2131,66.58,1111122 
DISL,ioos:station:DISL:KATA:1,2015-05-03T23:30:00Z,30.2583,-88.2131,66.51,1111122 
DISL,ioos:station:DISL:KATA:1,2015-05-04T00:00:00Z,30.2583,-88.2131,70.28,1111122 
DISL,ioos:station:DISL:KATA:1,2015-05-04T00:30:00Z,30.2583,-88.2131,72.63,1111122 
DISL,ioos:station:DISL:KATA:1,2015-05-04T01:00:00Z,30.2583,-88.2131,76.66,1111122 
DISL,ioos:station:DISL:KATA:1,2015-05-04T01:30:00Z,30.2583,-88.2131,78.97,1111122 
DISL,ioos:station:DISL:KATA:1,2015-05-04T02:00:00Z,30.2583,-88.2131,80.6,1111122 
DISL,ioos:station:DISL:KATA:1,2015-05-04T02:30:00Z,30.2583,-88.2131,82.3,1111122 
DISL,ioos:station:DISL:KATA:1,2015-05-04T03:00:00Z,30.2583,-88.2131,76.53,1111122 
DISL,ioos:station:DISL:KATA:1,2015-05-04T03:30:00Z,30.2583,-88.2131,76.59,1111122 
DISL,ioos:station:DISL:KATA:1,2015-05-04T04:00:00Z,30.2583,-88.2131,74.15,1111122 
DISL,ioos:station:DISL:KATA:1,2015-05-04T04:30:00Z,30.2583,-88.2131,74.25,1111122 
DISL,ioos:station:DISL:KATA:1,2015-05-04T05:00:00Z,30.2583,-88.2131,72.52,1111122 
DISL,ioos:station:DISL:KATA:1,2015-05-04T05:30:00Z,30.2583,-88.2131,74.02,1111122 
DISL,ioos:station:DISL:KATA:1,2015-05-04T06:00:00Z,30.2583,-88.2131,74.8,1111122 
DISL,ioos:station:DISL:KATA:1,2015-05-04T06:30:00Z,30.2583,-88.2131,72.96,1111122 
DISL,ioos:station:DISL:KATA:1,2015-05-04T07:00:00Z,30.2583,-88.2131,73.98,1111122 
DISL,ioos:station:DISL:KATA:1,2015-05-04T07:30:00Z,30.2583,-88.2131,73.0,1111122 
DISL,ioos:station:DISL:KATA:1,2015-05-04T08:00:00Z,30.2583,-88.2131,72.22,1111122 
DISL,ioos:station:DISL:KATA:1,2015-05-04T08:30:00Z,30.2583,-88.2131,72.15,1111122 
DISL,ioos:station:DISL:KATA:1,2015-05-04T09:00:00Z,30.2583,-88.2131,71.23,1111122 
DISL,ioos:station:DISL:KATA:1,2015-05-04T09:30:00Z,30.2583,-88.2131,66.15,1111122 
DISL,ioos:station:DISL:KATA:1,2015-05-04T10:00:00Z,30.2583,-88.2131,65.98,1111122 
DISL,ioos:station:DISL:KATA:1,2015-05-04T10:30:00Z,30.2583,-88.2131,68.72,1111122 
DISL,ioos:station:DISL:KATA:1,2015-05-04T11:00:00Z,30.2583,-88.2131,68.45,1111122 
DISL,ioos:station:DISL:KATA:1,2015-05-04T11:30:00Z,30.2583,-88.2131,67.16,1111122 
DISL,ioos:station:DISL:KATA:1,2015-05-04T12:00:00Z,30.2583,-88.2131,68.76,1111122 
DISL,ioos:station:DISL:KATA:1,2015-05-04T12:30:00Z,30.2583,-88.2131,70.59,1111122 
DISL,ioos:station:DISL:KATA:1,2015-05-04T13:00:00Z,30.2583,-88.2131,75.51,1111122 
DISL,ioos:station:DISL:KATA:1,2015-05-04T13:30:00Z,30.2583,-88.2131,76.02,1111122 
DISL,ioos:station:DISL:KATA:1,2015-05-04T14:00:00Z,30.2583,-88.2131,75.34,1111122 
DISL,ioos:station:DISL:KATA:1,2015-05-04T14:30:00Z,30.2583,-88.2131,77.71,1111122 
DISL,ioos:station:DISL:KATA:1,2015-05-04T15:00:00Z,30.2583,-88.2131,78.39,1111122 
DISL,ioos:station:DISL:KATA:1,2015-05-04T15:30:00Z,30.2583,-88.2131,80.8,1111122 
DISL,ioos:station:DISL:KATA:1,2015-05-04T16:00:00Z,30.2583,-88.2131,82.4,1111122 
DISL,ioos:station:DISL:KATA:1,2015-05-04T16:30:00Z,30.2583,-88.2131,84.2,1111122 
DISL,ioos:station:DISL:KATA:1,2015-05-04T17:00:00Z,30.2583,-88.2131,81.4,1111122 
DISL,ioos:station:DISL:KATA:1,2015-05-04T17:30:00Z,30.2583,-88.2131,76.82,1111122 
DISL,ioos:station:DISL:KATA:1,2015-05-04T18:00:00Z,30.2583,-88.2131,78.17,1111122 
DISL,ioos:station:DISL:KATA:1,2015-05-04T18:30:00Z,30.2583,-88.2131,77.06,1111122 
DISL,ioos:station:DISL:KATA:1,2015-05-04T19:00:00Z,30.2583,-88.2131,77.02,1111122 
DISL,ioos:station:DISL:KATA:1,2015-05-04T19:30:00Z,30.2583,-88.2131,76.85,1111122 
DISL,ioos:station:DISL:KATA:1,2015-05-04T20:00:00Z,30.2583,-88.2131,78.35,1111122 
DISL,ioos:station:DISL:KATA:1,2015-05-04T20:30:00Z,30.2583,-88.2131,79.3,1111122 
DISL,ioos:station:DISL:KATA:1,2015-05-04T21:00:00Z,30.2583,-88.2131,71.73,1111122 
DISL,ioos:station:DISL:KATA:1,2015-05-04T21:30:00Z,30.2583,-88.2131,68.44,1111122 
DISL,ioos:station:DISL:KATA:1,2015-05-04T22:00:00Z,30.2583,-88.2131,74.98,1111122 
DISL,ioos:station:DISL:KATA:1,2015-05-04T22:30:00Z,30.2583,-88.2131,71.46,1111122 
DISL,ioos:station:DISL:KATA:1,2015-05-04T23:00:00Z,30.2583,-88.2131,67.52,1111122 
DISL,ioos:station:DISL:KATA:1,2015-05-04T23:30:00Z,30.2583,-88.2131,64.51,1111122 
DISL,ioos:station:DISL:KATA:1,2015-05-05T00:00:00Z,30.2583,-88.2131,65.81,1111122 
DISL,ioos:station:DISL:KATA:1,2015-05-05T00:30:00Z,30.2583,-88.2131,64.52,1111122 
DISL,ioos:station:DISL:KATA:1,2015-05-05T01:00:00Z,30.2583,-88.2131,69.17,1111122 
DISL,ioos:station:DISL:KATA:1,2015-05-05T01:30:00Z,30.2583,-88.2131,64.31,1111122 
DISL,ioos:station:DISL:KATA:1,2015-05-05T02:00:00Z,30.2583,-88.2131,58.07,1111122 
DISL,ioos:station:DISL:KATA:1,2015-05-05T02:30:00Z,30.2583,-88.2131,66.52,1111122 
DISL,ioos:station:DISL:KATA:1,2015-05-05T03:00:00Z,30.2583,-88.2131,67.71,1111122 
DISL,ioos:station:DISL:KATA:1,2015-05-05T03:30:00Z,30.2583,-88.2131,65.98,1111122 
DISL,ioos:station:DISL:KATA:1,2015-05-05T04:00:00Z,30.2583,-88.2131,65.57,1111122 
DISL,ioos:station:DISL:KATA:1,2015-05-05T04:30:00Z,30.2583,-88.2131,64.93,1111122 
DISL,ioos:station:DISL:KATA:1,2015-05-05T05:00:00Z,30.2583,-88.2131,65.2,1111122 
DISL,ioos:station:DISL:KATA:1,2015-05-05T05:30:00Z,30.2583,-88.2131,63.43,1111122 
DISL,ioos:station:DISL:KATA:1,2015-05-05T06:00:00Z,30.2583,-88.2131,66.96,1111122 
DISL,ioos:station:DISL:KATA:1,2015-05-05T06:30:00Z,30.2583,-88.2131,67.64,1111122 
DISL,ioos:station:DISL:KATA:1,2015-05-05T07:00:00Z,30.2583,-88.2131,71.54,1111122 
DISL,ioos:station:DISL:KATA:1,2015-05-05T07:30:00Z,30.2583,-88.2131,72.29,1111122 
DISL,ioos:station:DISL:KATA:1,2015-05-05T08:00:00Z,30.2583,-88.2131,72.69,1111122 
DISL,ioos:station:DISL:KATA:1,2015-05-05T08:30:00Z,30.2583,-88.2131,72.76,1111122 
DISL,ioos:station:DISL:KATA:1,2015-05-05T09:00:00Z,30.2583,-88.2131,78.83,1111122 
DISL,ioos:station:DISL:KATA:1,2015-05-05T09:30:00Z,30.2583,-88.2131,83.2,1111122 
DISL,ioos:station:DISL:KATA:1,2015-05-05T10:00:00Z,30.2583,-88.2131,83.4,1111122 
DISL,ioos:station:DISL:KATA:1,2015-05-05T10:30:00Z,30.2583,-88.2131,82.2,1111122 
DISL,ioos:station:DISL:KATA:1,2015-05-05T11:00:00Z,30.2583,-88.2131,84.9,1111122 
DISL,ioos:station:DISL:KATA:1,2015-05-05T11:30:00Z,30.2583,-88.2131,87.6,1111122 
DISL,ioos:station:DISL:KATA:1,2015-05-05T12:00:00Z,30.2583,-88.2131,80.4,1111122 
DISL,ioos:station:DISL:KATA:1,2015-05-05T12:30:00Z,30.2583,-88.2131,73.03,1111122 
DISL,ioos:station:DISL:KATA:1,2015-05-05T13:00:00Z,30.2583,-88.2131,71.03,1111122 
DISL,ioos:station:DISL:KATA:1,2015-05-05T13:30:00Z,30.2583,-88.2131,71.78,1111122 
DISL,ioos:station:DISL:KATA:1,2015-05-05T14:00:00Z,30.2583,-88.2131,76.46,1111122 
DISL,ioos:station:DISL:KATA:1,2015-05-05T14:30:00Z,30.2583,-88.2131,81.3,1111122 
DISL,ioos:station:DISL:KATA:1,2015-05-05T15:00:00Z,30.2583,-88.2131,82.1,1111122 
DISL,ioos:station:DISL:KATA:1,2015-05-05T15:30:00Z,30.2583,-88.2131,80.5,1111122 
DISL,ioos:station:DISL:KATA:1,2015-05-05T16:00:00Z,30.2583,-88.2131,80.5,1111122 
DISL,ioos:station:DISL:KATA:1,2015-05-05T16:30:00Z,30.2583,-88.2131,78.73,1111122 
DISL,ioos:station:DISL:KATA:1,2015-05-05T17:00:00Z,30.2583,-88.2131,79.43,1111122 
DISL,ioos:station:DISL:KATA:1,2015-05-05T17:30:00Z,30.2583,-88.2131,78.55,1111122 
DISL,ioos:station:DISL:KATA:1,2015-05-05T18:00:00Z,30.2583,-88.2131,75.74,1111122 
DISL,ioos:station:DISL:KATA:1,2015-05-05T18:30:00Z,30.2583,-88.2131,75.17,1111122 
DISL,ioos:station:DISL:KATA:1,2015-05-05T19:00:00Z,30.2583,-88.2131,74.86,1111122 
DISL,ioos:station:DISL:KATA:1,2015-05-05T19:30:00Z,30.2583,-88.2131,72.01,1111122 
DISL,ioos:station:DISL:KATA:1,2015-05-05T20:00:00Z,30.2583,-88.2131,71.37,1111122 
DISL,ioos:station:DISL:KATA:1,2015-05-05T20:30:00Z,30.2583,-88.2131,61.77,1111122 
DISL,ioos:station:DISL:KATA:1,2015-05-05T21:00:00Z,30.2583,-88.2131,67.36,1111122 
DISL,ioos:station:DISL:KATA:1,2015-05-05T21:30:00Z,30.2583,-88.2131,74.55,1111122 
DISL,ioos:station:DISL:KATA:1,2015-05-05T22:00:00Z,30.2583,-88.2131,73.33,1111122 
DISL,ioos:station:DISL:KATA:1,2015-05-05T22:30:00Z,30.2583,-88.2131,74.82,1111122 
DISL,ioos:station:DISL:KATA:1,2015-05-05T23:00:00Z,30.2583,-88.2131,72.99,1111122 
DISL,ioos:station:DISL:KATA:1,2015-05-05T23:30:00Z,30.2583,-88.2131,72.05,1111122 
DISL,ioos:station:DISL:KATA:1,2015-05-06T00:00:00Z,30.2583,-88.2131,71.78,1111122 
DISL,ioos:station:DISL:KATA:1,2015-05-06T00:30:00Z,30.2583,-88.2131,69.44,1111122 
DISL,ioos:station:DISL:KATA:1,2015-05-06T01:00:00Z,30.2583,-88.2131,70.18,1111122 
DISL,ioos:station:DISL:KATA:1,2015-05-06T01:30:00Z,30.2583,-88.2131,70.32,1111122 
DISL,ioos:station:DISL:KATA:1,2015-05-06T02:00:00Z,30.2583,-88.2131,73.44,1111122 
DISL,ioos:station:DISL:KATA:1,2015-05-06T02:30:00Z,30.2583,-88.2131,74.08,1111122 
DISL,ioos:station:DISL:KATA:1,2015-05-06T03:00:00Z,30.2583,-88.2131,76.22,1111122 
DISL,ioos:station:DISL:KATA:1,2015-05-06T03:30:00Z,30.2583,-88.2131,77.82,1111122 
DISL,ioos:station:DISL:KATA:1,2015-05-06T04:00:00Z,30.2583,-88.2131,79.04,1111122 
DISL,ioos:station:DISL:KATA:1,2015-05-06T04:30:00Z,30.2583,-88.2131,81.3,1111122 
DISL,ioos:station:DISL:KATA:1,2015-05-06T05:00:00Z,30.2583,-88.2131,80.5,1111122 
DISL,ioos:station:DISL:KATA:1,2015-05-06T05:30:00Z,30.2583,-88.2131,80.9,1111122 
DISL,ioos:station:DISL:KATA:1,2015-05-06T06:00:00Z,30.2583,-88.2131,79.61,1111122 
DISL,ioos:station:DISL:KATA:1,2015-05-06T06:30:00Z,30.2583,-88.2131,77.27,1111122 
DISL,ioos:station:DISL:KATA:1,2015-05-06T07:00:00Z,30.2583,-88.2131,77.48,1111122 
DISL,ioos:station:DISL:KATA:1,2015-05-06T07:30:00Z,30.2583,-88.2131,76.63,1111122 
DISL,ioos:station:DISL:KATA:1,2015-05-06T08:00:00Z,30.2583,-88.2131,78.46,1111122 
DISL,ioos:station:DISL:KATA:1,2015-05-06T08:30:00Z,30.2583,-88.2131,81.7,1111122 
DISL,ioos:station:DISL:KATA:1,2015-05-06T09:00:00Z,30.2583,-88.2131,82.9,1111122 
DISL,ioos:station:DISL:KATA:1,2015-05-06T09:30:00Z,30.2583,-88.2131,85.5,1111122 
DISL,ioos:station:DISL:KATA:1,2015-05-06T10:00:00Z,30.2583,-88.2131,89.0,1111122 
DISL,ioos:station:DISL:KATA:1,2015-05-06T10:30:00Z,30.2583,-88.2131,90.1,1111122 
DISL,ioos:station:DISL:KATA:1,2015-05-06T11:00:00Z,30.2583,-88.2131,90.4,1111122 
DISL,ioos:station:DISL:KATA:1,2015-05-06T11:30:00Z,30.2583,-88.2131,90.5,1111122 
DISL,ioos:station:DISL:KATA:1,2015-05-06T12:00:00Z,30.2583,-88.2131,86.3,1111122 
DISL,ioos:station:DISL:KATA:1,2015-05-06T12:30:00Z,30.2583,-88.2131,84.0,1111122 
DISL,ioos:station:DISL:KATA:1,2015-05-06T13:00:00Z,30.2583,-88.2131,83.3,1111122 
DISL,ioos:station:DISL:KATA:1,2015-05-06T13:30:00Z,30.2583,-88.2131,84.5,1111122 
DISL,ioos:station:DISL:KATA:1,2015-05-06T14:00:00Z,30.2583,-88.2131,81.9,1111122 
DISL,ioos:station:DISL:KATA:1,2015-05-06T14:30:00Z,30.2583,-88.2131,82.5,1111122 
DISL,ioos:station:DISL:KATA:1,2015-05-06T15:00:00Z,30.2583,-88.2131,81.0,1111122 
DISL,ioos:station:DISL:KATA:1,2015-05-06T15:30:00Z,30.2583,-88.2131,83.3,1111122 
DISL,ioos:station:DISL:KATA:1,2015-05-06T16:00:00Z,30.2583,-88.2131,82.7,1111122 
DISL,ioos:station:DISL:KATA:1,2015-05-06T16:30:00Z,30.2583,-88.2131,81.5,1111122 
DISL,ioos:station:DISL:KATA:1,2015-05-06T17:00:00Z,30.2583,-88.2131,83.5,1111122 
DISL,ioos:station:DISL:KATA:1,2015-05-06T17:30:00Z,30.2583,-88.2131,83.9,1111122 
DISL,ioos:station:DISL:KATA:1,2015-05-06T18:00:00Z,30.2583,-88.2131,82.5,1111122 
DISL,ioos:station:DISL:KATA:1,2015-05-06T18:30:00Z,30.2583,-88.2131,82.2,1111122 
DISL,ioos:station:DISL:KATA:1,2015-05-06T19:00:00Z,30.2583,-88.2131,83.7,1111122 
DISL,ioos:station:DISL:KATA:1,2015-05-06T19:30:00Z,30.2583,-88.2131,83.2,1111122 
DISL,ioos:station:DISL:KATA:1,2015-05-06T20:00:00Z,30.2583,-88.2131,83.1,1111122 
DISL,ioos:station:DISL:KATA:1,2015-05-06T20:30:00Z,30.2583,-88.2131,84.6,1111122 
DISL,ioos:station:DISL:KATA:1,2015-05-06T21:00:00Z,30.2583,-88.2131,82.1,1111122 
DISL,ioos:station:DISL:KATA:1,2015-05-06T21:30:00Z,30.2583,-88.2131,83.3,1111122 
DISL,ioos:station:DISL:KATA:1,2015-05-06T22:00:00Z,30.2583,-88.2131,77.69,1111122 
DISL,ioos:station:DISL:KATA:1,2015-05-06T22:30:00Z,30.2583,-88.2131,80.6,1111122 
DISL,ioos:station:DISL:KATA:1,2015-05-06T23:00:00Z,30.2583,-88.2131,74.81,1111122 
DISL,ioos:station:DISL:KATA:1,2015-05-06T23:30:00Z,30.2583,-88.2131,78.27,1111122 
DISL,ioos:station:DISL:KATA:1,2015-05-07T00:00:00Z,30.2583,-88.2131,76.85,1111122 